Flag for Germany Weather past 2 weeks in Bautzen, Saxony, Germany

Now
46 °F

Rain. Low clouds.


Feels Like: 44 °F
Forecast: 41 / 50 °F
Wind: 5 mph from Northwest

Location: Goerlitz

Current Time: Oct 22, 2014 at 11:57:14 PM

Latest Report: Oct 22, 2014 at 11:00 PM


Visibility: 3 mi

Pressure: 29.79 "Hg

Humidity: 98%

Dew point: 46 °F

Location of BautzenLocation

Historic Weather in Bautzen — Graph

°F

Bautzen temperature yesterday

Maximum temperature yesterday: 60 °F (at 1:00 PM)
Minimum temperature yesterday: 49 °F (at 7:00 AM)
Average temperature yesterday: 54 °F

Past Weeks' High & Low Weather Summary

 TemperatureHumidityPressure
High68 °F (Oct 9, 3:00 PM)98% (Oct 11, 3:00 AM)30.27 "Hg (Oct 11, 3:00 AM)
Low44 °F (Oct 22, 12:00 PM)64% (Oct 20, 3:00 PM)29.47 "Hg (Oct 22, 12:00 AM)
Average57 °F86%29.90 "Hg
* Reported Oct 7 10:00 PM — Oct 22 10:00 PM, Bautzen, Weather by CustomWeather, © 2014

Note: Actual official high and low records may vary slightly from our data, if they occured in-between our weather recording intervals... More about our weather records

Advertising

Bautzen weather history for previous 24 hours

 ConditionsComfort  
Time TempWeatherWind HumidityBarometerVisibility
10:00 PM
Oct 22
45 °FRain. Low clouds.3 mph98%29.78 "Hg2 mi
9:00 PM44 °FRain. Low clouds.3 mph97%29.77 "Hg3 mi
8:00 PM44 °FLight rain. Low clouds.3 mph97%29.75 "Hg4 mi
7:00 PM44 °FRain. Low clouds.3 mph95%29.75 "Hg4 mi
6:00 PM44 °FRain. Low clouds.6 mph94%29.73 "Hg3 mi
5:00 PM45 °FRain. Low clouds.6 mph95%29.72 "Hg4 mi
4:00 PM45 °FLight rain. Low clouds.6 mph93%29.70 "Hg7 mi
3:00 PM45 °FLight rain. Low clouds.7 mph93%29.70 "Hg7 mi
2:00 PM45 °FLight rain. Low clouds.7 mph93%29.70 "Hg7 mi
1:00 PM44 °FRain. Low clouds.7 mph93%29.70 "Hg6 mi
12:00 PM44 °FRain. Low clouds.7 mph92%29.70 "Hg7 mi
11:00 AM45 °FLight rain. Overcast.7 mph87%29.70 "Hg14 mi
10:00 AM45 °FOvercast.8 mph86%29.70 "Hg16 mi
9:00 AM45 °FOvercast.7 mph86%29.68 "Hg12 mi
8:00 AM46 °FOvercast.6 mph83%29.67 "Hg17 mi
7:00 AM46 °FOvercast.6 mph84%29.64 "Hg19 mi
6:00 AM46 °FOvercast.8 mph86%29.66 "Hg19 mi
5:00 AM46 °FLight rain. Overcast.8 mph90%29.63 "Hg9 mi
4:00 AM46 °FLight rain. Overcast.10 mph90%29.62 "Hg9 mi
3:00 AM48 °FLight rain. Overcast.8 mph93%29.61 "Hg9 mi
2:00 AM48 °FLight rain. Overcast.5 mph90%29.54 "Hg9 mi
1:00 AM51 °FLight rain. Overcast.10 mph91%29.50 "Hg9 mi
12:00 AM54 °FLight rain. Overcast.8 mph84%29.47 "Hg19 mi
11:00 PM
Oct 21
54 °FOvercast.8 mph81%29.50 "Hg28 mi
Weather by CustomWeather, © 2014

See weather overviewHow to use our weather pages